Lake Minchumina, AK

11:45 AM AKDT on July 27, 2016 (GMT -0800)
Minchumina

Weather History for PAMH - January, 2013

Change the Weather History Date:

Saturday, January 26, 2013

  Actual Average Record
Temperature  
Mean Temperature -26 °F -  
Max Temperature -13 °F 1 °F 23 °F (2014)
Min Temperature -38 °F -6 °F -47 °F (2006)
Degree Days  
Heating Degree Days 90    
Moisture  
Dew Point -23 °F    
Average Humidity 79    
Maximum Humidity 100    
Minimum Humidity 63    
Precipitation  
Precipitation 0.00 in - - ()
Sea Level Pressure  
Sea Level Pressure 30.01 in    
Wind  
Wind Speed 0 mph (NNE)    
Max Wind Speed 7 mph    
Max Gust Speed 56 mph    
Visibility 9 miles    
Events      
Averages and records for this station are not official NWS values.
T = Trace of Precipitation, MM = Missing Value Source: NWS Daily Summary

Daily Weather History Graph

Daily Weather History Graph

Search for Another Location

Airport or City:

Trip Planner

Search our weather history database for the weather conditions in past years. The results will help you decide how hot, cold, wet, or windy it might be!

Date:

Astronomy

Jan. 26, 2013 Rise Set
Actual Time 10:03 AM AKST 4:41 PM AKST
Civil Twilight 9:04 AM AKST 5:40 PM AKST
Nautical Twilight 8:04 AM AKST 6:40 PM AKST
Astronomical Twilight 7:09 AM AKST 7:35 PM AKST
Moon 5:09 PM AKST (1/26) 9:09 AM AKST (1/26)
Length of Visible Light 8h 35m
Length of Day
6h 37m
Full, 100% of the Moon is Illuminated
Jan 26
Full
Jan 26
Full
Feb 3
Last Quarter
Feb 9
New
Feb 17
First Quarter

Hourly Weather History & Observations

Time (AKST) Temp. Windchill Dew Point Humidity Pressure Visibility Wind Dir Wind Speed Gust Speed Precip Events Conditions
12:16 AM -13.0 °F - -20.2 °F 70% 29.97 in 10.0 mi Calm Calm - N/A   Clear
12:36 AM -14.8 °F - -22.0 °F 70% 29.98 in 10.0 mi Calm Calm - N/A   Clear
12:56 AM -14.8 °F - -20.2 °F 77% 29.98 in 10.0 mi Calm Calm - N/A   Clear
1:16 AM -13.0 °F -25.1 °F -18.4 °F 77% 29.98 in 10.0 mi North 4.6 mph - N/A   Clear
1:36 AM -14.8 °F - -20.2 °F 77% 29.98 in 10.0 mi Calm Calm - N/A   Clear
1:56 AM -16.6 °F - -25.6 °F 64% 29.98 in 10.0 mi Calm Calm - N/A   Clear
2:16 AM -16.6 °F - -22.0 °F 76% 29.98 in 10.0 mi Calm Calm - N/A   Clear
2:36 AM -16.6 °F - -16.6 °F 100% 29.98 in 10.0 mi Calm Calm - N/A   Clear
2:56 AM -18.4 °F - - N/A% 29.98 in 10.0 mi Calm Calm - N/A   Clear
3:16 AM -18.4 °F - -25.6 °F 70% 29.98 in 10.0 mi Calm Calm - N/A   Clear
3:36 AM -16.6 °F - -16.6 °F 100% 29.98 in 10.0 mi Calm Calm - N/A   Clear
3:56 AM -16.6 °F - -23.8 °F 70% 29.98 in 10.0 mi Calm Calm - N/A   Clear
4:16 AM -16.6 °F -32.9 °F -23.8 °F 70% 29.98 in 10.0 mi NNE 6.9 mph 56.4 mph N/A   Clear
4:36 AM -16.6 °F - -20.2 °F 84% 29.97 in 10.0 mi Calm Calm - N/A   Clear
4:56 AM -18.4 °F - -25.6 °F 70% 29.98 in 10.0 mi Calm Calm - N/A   Clear
5:16 AM -18.4 °F - -27.4 °F 63% 29.98 in 10.0 mi Calm Calm - N/A   Clear
5:36 AM -20.2 °F -30.9 °F - N/A% 29.97 in 10.0 mi NNE 3.5 mph - N/A   Clear
5:56 AM -25.6 °F - -27.4 °F 91% 29.97 in 10.0 mi Calm Calm - N/A   Clear
6:16 AM -23.8 °F - -25.6 °F 91% 29.97 in 10.0 mi Calm Calm - N/A   Clear
6:36 AM -31.0 °F - - N/A% 29.97 in 10.0 mi Calm Calm - N/A   Clear
6:56 AM -29.2 °F - - N/A% 29.97 in 10.0 mi Calm Calm - N/A   Clear
7:16 AM -27.4 °F - - N/A% 29.96 in 10.0 mi Calm Calm - N/A   Clear
7:36 AM -27.4 °F - -27.4 °F 100% 29.96 in 10.0 mi Calm Calm - N/A   Clear
7:56 AM -29.2 °F - - N/A% 29.96 in 10.0 mi Calm Calm - N/A   Clear
8:16 AM -38.2 °F - - N/A% 29.96 in 5.0 mi Calm Calm - N/A   Clear
8:36 AM -32.8 °F - - N/A% 29.96 in 10.0 mi Calm Calm - N/A   Clear
8:56 AM -32.8 °F - - N/A% 29.96 in 10.0 mi Calm Calm - N/A   Clear
9:16 AM -34.6 °F - - N/A% 29.97 in 10.0 mi Calm Calm - N/A   Clear
9:36 AM -36.4 °F - - N/A% 29.97 in 10.0 mi Calm Calm - N/A   Clear
9:56 AM -34.6 °F - - N/A% 29.98 in 10.0 mi Calm Calm - N/A   Clear
10:16 AM -34.6 °F - - N/A% 29.98 in 10.0 mi Calm Calm - N/A   Clear
10:36 AM -34.6 °F - - N/A% 29.98 in 10.0 mi Calm Calm - N/A   Clear
10:56 AM -36.4 °F - - N/A% 29.98 in 7.0 mi Calm Calm - N/A   Clear
11:16 AM -34.6 °F - - N/A% 29.98 in 10.0 mi Calm Calm - N/A   Clear
11:36 AM -34.6 °F - - N/A% 29.98 in 2.5 mi Calm Calm - N/A   Clear
11:56 AM -32.8 °F - - N/A% 29.98 in 3.0 mi Calm Calm - N/A   Clear
12:16 PM -34.6 °F - - N/A% 29.98 in 4.0 mi Calm Calm - N/A   Clear
12:36 PM -34.6 °F - - N/A% 29.99 in 10.0 mi Calm Calm - N/A   Clear
12:56 PM -34.6 °F - - N/A% 29.99 in 10.0 mi Calm Calm - N/A   Scattered Clouds
1:16 PM -34.6 °F - - N/A% 29.99 in 10.0 mi Calm Calm - N/A   Scattered Clouds
1:36 PM -32.8 °F - - N/A% 29.99 in 10.0 mi Calm Calm - N/A   Mostly Cloudy
1:56 PM -31.0 °F - - N/A% 30.00 in 10.0 mi Calm Calm - N/A   Overcast
2:16 PM -27.4 °F - - N/A% 30.00 in 10.0 mi Calm Calm - N/A   Overcast
2:36 PM -27.4 °F - - N/A% 30.00 in 10.0 mi Calm Calm - N/A   Overcast
2:56 PM -25.6 °F - - N/A% 30.00 in 10.0 mi Calm Calm - N/A   Overcast
3:16 PM -25.6 °F - - N/A% 30.00 in 10.0 mi Calm Calm - N/A   Overcast
3:36 PM -27.4 °F - - N/A% 30.01 in 10.0 mi Calm Calm - N/A   Overcast
3:56 PM -27.4 °F - - N/A% 30.01 in 10.0 mi Calm Calm - N/A   Overcast
4:16 PM -25.6 °F - - N/A% 30.02 in 8.0 mi Calm Calm - N/A   Overcast
4:36 PM -25.6 °F - - N/A% 30.02 in 10.0 mi Calm Calm - N/A   Overcast
4:56 PM -25.6 °F - - N/A% 30.03 in 10.0 mi Calm Calm - N/A   Overcast
5:16 PM -25.6 °F - - N/A% 30.03 in 10.0 mi Calm Calm - N/A   Overcast
5:36 PM -27.4 °F - - N/A% 30.03 in 5.0 mi Calm Calm - N/A   Overcast
5:56 PM -27.4 °F - - N/A% 30.03 in 4.0 mi Calm Calm - N/A   Overcast
6:16 PM -27.4 °F - - N/A% 30.04 in 5.0 mi Calm Calm - N/A   Overcast
6:36 PM -27.4 °F - - N/A% 30.05 in 5.0 mi Calm Calm - N/A   Overcast
6:56 PM -25.6 °F - - N/A% 30.05 in 8.0 mi Calm Calm - N/A   Overcast
7:16 PM -25.6 °F - - N/A% 30.05 in 4.0 mi Calm Calm - N/A   Overcast
7:36 PM -25.6 °F - - N/A% 30.06 in 10.0 mi Calm Calm - N/A   Mostly Cloudy
7:56 PM -25.6 °F - - N/A% 30.07 in 10.0 mi Calm Calm - N/A   Partly Cloudy
8:16 PM -25.6 °F - - N/A% 30.07 in 10.0 mi Calm Calm - N/A   Clear
8:36 PM -27.4 °F - - N/A% 30.08 in 10.0 mi Calm Calm - N/A   Mostly Cloudy
8:56 PM -29.2 °F - - N/A% 30.08 in 10.0 mi Calm Calm - N/A   Overcast
9:16 PM -29.2 °F - - N/A% 30.09 in 9.0 mi Calm Calm - N/A   Overcast
9:36 PM -27.4 °F - - N/A% 30.10 in 4.0 mi Calm Calm - N/A   Overcast
9:56 PM -27.4 °F - - N/A% 30.10 in 3.0 mi Calm Calm - N/A   Overcast
10:16 PM -31.0 °F - - N/A% 30.11 in 7.0 mi Calm Calm - N/A   Overcast
10:36 PM -31.0 °F - - N/A% 30.12 in 5.0 mi Calm Calm - N/A   Overcast
10:56 PM -31.0 °F - - N/A% 30.12 in 10.0 mi Calm Calm - N/A   Scattered Clouds
11:16 PM -32.8 °F - - N/A% 30.13 in 10.0 mi Calm Calm - N/A   Clear
11:36 PM -32.8 °F - - N/A% 30.14 in 10.0 mi Calm Calm - N/A   Clear
11:56 PM -32.8 °F - - N/A% 30.14 in 10.0 mi Calm Calm - N/A   Clear